Iron Mountain, MI

1:04 AM CDT on August 23, 2017 (GMT -0500)
Ford

Weather History for KIMT - November, 2013

Change the Weather History Date:

Monday, November 11, 2013

  Actual Average Record
Temperature  
Mean Temperature 28 °F -  
Max Temperature 35 °F 39 °F 64 °F (1964)
Min Temperature 21 °F 25 °F 2 °F (1979)
Degree Days  
Heating Degree Days 37    
Moisture  
Dew Point 18 °F    
Average Humidity 70    
Maximum Humidity 89    
Minimum Humidity 51    
Precipitation  
Precipitation 0.00 in - - ()
Sea Level Pressure  
Sea Level Pressure 30.23 in    
Wind  
Wind Speed 13 mph (NW)    
Max Wind Speed 24 mph    
Max Gust Speed 37 mph    
Visibility 8 miles    
Events Snow    
Averages and records for this station are not official NWS values.
T = Trace of Precipitation, MM = Missing Value Source: NWS Daily Summary

Daily Weather History Graph

Daily Weather History Graph

Search for Another Location

Airport or City:

Trip Planner

Search our weather history database for the weather conditions in past years. The results will help you decide how hot, cold, wet, or windy it might be!

Date:

Astronomy

Nov. 11, 2013 Rise Set
Actual Time 6:47 AM CST 4:25 PM CST
Civil Twilight 6:15 AM CST 4:57 PM CST
Nautical Twilight 5:39 AM CST 5:33 PM CST
Astronomical Twilight 5:04 AM CST 6:08 PM CST
Moon 1:22 PM CST (11/11) 12:13 AM CST (11/11)
Length of Visible Light 10h 42m
Length of Day
9h 38m
Waxing Gibbous, 66% of the Moon is Illuminated
Nov 11
Waxing Gibbous
Nov 17
Full
Nov 25
Last Quarter
Dec 2
New
Dec 9
First Quarter

Hourly Weather History & Observations

Time (CST) Temp. Windchill Dew Point Humidity Pressure Visibility Wind Dir Wind Speed Gust Speed Precip Events Conditions
12:54 AM 34.0 °F 27.2 °F 30.9 °F 89% 30.03 in 7.0 mi WSW 8.1 mph - 0.00 in Snow Light Snow
1:46 AM 33.8 °F 29.6 °F 30.2 °F 87% 29.98 in 10.0 mi WSW 4.6 mph - 0.00 in   Overcast
1:54 AM 35.1 °F 31.0 °F 30.9 °F 85% 30.02 in 10.0 mi West 4.6 mph - 0.00 in   Overcast
2:24 AM 33.8 °F 27.7 °F 30.2 °F 87% 29.97 in 10.0 mi West 6.9 mph - N/A   Overcast
2:54 AM 35.1 °F 28.6 °F 30.0 °F 82% 30.01 in 10.0 mi West 8.1 mph - N/A   Overcast
3:30 AM 33.8 °F 24.8 °F 30.2 °F 87% 29.97 in 5.0 mi WNW 12.7 mph 18.4 mph 0.00 in Snow Light Snow
3:54 AM 30.9 °F 18.4 °F 27.0 °F 85% 30.05 in 2.5 mi NNW 20.7 mph 27.6 mph 0.00 in Snow Light Snow
4:12 AM 28.4 °F 15.8 °F 23.0 °F 80% 30.02 in 6.0 mi North 18.4 mph 27.6 mph 0.00 in Snow Light Snow
4:24 AM 28.4 °F 14.1 °F 19.4 °F 69% 30.04 in 10.0 mi NNW 24.2 mph 36.8 mph 0.00 in   Overcast
4:54 AM 27.0 °F 14.7 °F 19.0 °F 72% 30.10 in 8.0 mi NW 16.1 mph 25.3 mph 0.00 in   Overcast
5:24 AM 26.6 °F 15.2 °F 17.6 °F 69% 30.07 in 10.0 mi NNW 13.8 mph 27.6 mph 0.00 in   Mostly Cloudy
5:54 AM 25.0 °F 14.2 °F 17.1 °F 72% 30.14 in 10.0 mi NNW 11.5 mph - 0.00 in   Overcast
6:54 AM 24.1 °F 11.0 °F 15.1 °F 69% 30.17 in 10.0 mi NW 16.1 mph 25.3 mph 0.00 in   Mostly Cloudy
7:39 AM 23.0 °F 11.7 °F 15.8 °F 74% 30.15 in 1.8 mi NNW 11.5 mph - 0.00 in Snow Light Snow
7:44 AM 23.0 °F 10.1 °F 17.6 °F 80% 30.16 in 0.8 mi NNW 15.0 mph - 0.00 in Snow Light Snow
7:54 AM 23.0 °F 8.3 °F 15.1 °F 72% 30.21 in 1.5 mi NW 19.6 mph 26.5 mph 0.00 in Snow Light Snow
7:56 AM 23.0 °F 9.2 °F 14.0 °F 68% 30.16 in 4.0 mi NW 17.3 mph 26.5 mph 0.00 in Snow Light Snow
8:54 AM 23.0 °F 7.2 °F 10.9 °F 60% 30.23 in 10.0 mi NW 23.0 mph 32.2 mph 0.00 in   Mostly Cloudy
9:54 AM 25.0 °F 9.5 °F 10.9 °F 55% 30.23 in 10.0 mi NNW 24.2 mph 34.5 mph N/A   Mostly Cloudy
10:54 AM 25.0 °F 10.6 °F 10.9 °F 55% 30.25 in 10.0 mi NNW 20.7 mph 32.2 mph N/A   Overcast
11:54 AM 26.1 °F 12.3 °F 10.0 °F 51% 30.25 in 10.0 mi NNW 19.6 mph 29.9 mph 0.00 in   Mostly Cloudy
12:54 PM 27.0 °F 13.2 °F 12.0 °F 53% 30.27 in 10.0 mi NW 20.7 mph 29.9 mph N/A   Overcast
1:54 PM 26.1 °F 11.6 °F 14.0 °F 60% 30.29 in 6.0 mi WNW 21.9 mph 31.1 mph 0.00 in Snow Light Snow
2:54 PM 25.0 °F 11.7 °F 15.1 °F 66% 30.30 in 3.0 mi NNW 17.3 mph 28.8 mph 0.00 in Snow Light Snow
3:54 PM 24.1 °F 9.4 °F 12.9 °F 62% 30.33 in 10.0 mi NW 20.7 mph 31.1 mph 0.00 in   Mostly Cloudy
4:54 PM 24.1 °F 10.1 °F 12.9 °F 62% 30.38 in 10.0 mi NNW 18.4 mph 26.5 mph 0.00 in   Overcast
5:54 PM 23.0 °F 10.1 °F 14.0 °F 68% 30.41 in 10.0 mi NNW 15.0 mph 24.2 mph N/A   Mostly Cloudy
6:54 PM 24.1 °F 11.5 °F 14.0 °F 65% 30.44 in 10.0 mi NNW 15.0 mph 21.9 mph N/A   Overcast
7:54 PM 24.1 °F 10.6 °F 14.0 °F 65% 30.46 in 10.0 mi NW 17.3 mph 24.2 mph N/A   Overcast
8:54 PM 24.1 °F 11.0 °F 12.9 °F 62% 30.49 in 10.0 mi NNW 16.1 mph 24.2 mph N/A   Overcast
9:54 PM 23.0 °F 11.7 °F 14.0 °F 68% 30.52 in 8.0 mi NNW 11.5 mph - 0.00 in Snow Light Snow
10:54 PM 21.9 °F 10.4 °F 12.9 °F 68% 30.54 in 10.0 mi NW 11.5 mph - 0.00 in   Mostly Cloudy
11:43 PM 21.2 °F 10.1 °F 10.4 °F 63% 30.48 in 10.0 mi NNW 10.4 mph 23.0 mph N/A   Scattered Clouds
11:54 PM 21.0 °F 9.3 °F 10.9 °F 65% 30.55 in 10.0 mi NNW 11.5 mph - N/A   Scattered Clouds